Weather History for KHRX - January, 2012

Change the Weather History Date:

Wednesday, January 11, 2012

  Actual Average (KAMA) Record (KAMA)
Temperature  
Mean Temperature 33 °F 37 °F  
Max Temperature 42 °F 50 °F 73 °F (1911)
Min Temperature 24 °F 23 °F -8 °F (1962)
Degree Days  
Heating Degree Days 32 28  
Month to date heating degree days 314  
Since 1 July heating degree days 2031  
Cooling Degree Days 0 0  
Month to date cooling degree days 0  
Year to date cooling degree days 0  
Moisture  
Dew Point 25 °F    
Average Humidity 68    
Maximum Humidity 80    
Minimum Humidity 53    
Precipitation  
Precipitation 0.00 in 0.01 in 0.42 in (1949)
Month to date precipitation 0.21  
Year to date precipitation 0.21  
Snow  
Snow 0.00 in 0.20 in 5.50 in (1905)
Month to date snowfall 1.3  
Since 1 July snowfall 7.7  
Snow Depth -    
Sea Level Pressure  
Sea Level Pressure 29.85 in    
Wind  
Wind Speed 15 mph (NNW)    
Max Wind Speed 39 mph    
Max Gust Speed 46 mph    
Visibility 10 miles    
Events      
T = Trace of Precipitation, MM = Missing Value Source: NWS Daily Summary

Daily Weather History Graph

Daily Weather History Graph

Search for Another Location

Airport or City:

Trip Planner

Search our weather history database for the weather conditions in past years. The results will help you decide how hot, cold, wet, or windy it might be!

Date:

Astronomy

Jan. 11, 2012 Rise Set
Actual Time 7:57 AM CST 5:57 PM CST
Civil Twilight 7:29 AM CST 6:24 PM CST
Nautical Twilight 6:58 AM CST 6:56 PM CST
Astronomical Twilight 6:27 AM CST 7:26 PM CST
Moon 8:49 PM CST (1/11) 9:17 AM CST (1/11)
Length of Visible Light 10h 55m
Length of Day
9h 59m
Waning Gibbous, 93% of the Moon is Illuminated
Jan 11
Waning Gibbous
Jan 16
Last Quarter
Jan 23
New
Jan 30
First Quarter
Feb 7
Full

Hourly Weather History & Observations

Time (CST) Temp. Windchill Dew Point Humidity Pressure Visibility Wind Dir Wind Speed Gust Speed Precip Events Conditions
12:15 AM 32.0 °F 25.6 °F 24.8 °F 75% 29.80 in 10.0 mi West 6.9 mph - N/A   Clear
12:35 AM 32.0 °F 25.6 °F 23.0 °F 69% 29.79 in 10.0 mi West 6.9 mph - N/A   Clear
12:55 AM 32.0 °F 28.7 °F 23.0 °F 69% 29.77 in 10.0 mi WSW 3.5 mph - N/A   Clear
1:15 AM 32.0 °F 27.5 °F 23.0 °F 69% 29.77 in 10.0 mi WSW 4.6 mph - N/A   Clear
1:35 AM 32.0 °F 26.4 °F 23.0 °F 69% 29.75 in 10.0 mi SW 5.8 mph - N/A   Clear
1:55 AM 30.2 °F 23.4 °F 23.0 °F 75% 29.75 in 10.0 mi SSW 6.9 mph - N/A   Clear
2:15 AM 32.0 °F 24.8 °F 23.0 °F 69% 29.75 in 10.0 mi WSW 8.1 mph - N/A   Clear
2:35 AM 32.0 °F 24.2 °F 23.0 °F 69% 29.75 in 10.0 mi West 9.2 mph - N/A   Clear
2:55 AM 32.0 °F 25.6 °F 23.0 °F 69% 29.74 in 10.0 mi West 6.9 mph - N/A   Clear
3:15 AM 30.2 °F 22.6 °F 23.0 °F 75% 29.74 in 10.0 mi West 8.1 mph - N/A   Clear
3:35 AM 30.2 °F 23.4 °F 23.0 °F 75% 29.73 in 10.0 mi West 6.9 mph - N/A   Clear
3:55 AM 28.4 °F 22.2 °F 21.2 °F 74% 29.73 in 10.0 mi West 5.8 mph - N/A   Clear
4:15 AM 28.4 °F 23.3 °F 21.2 °F 74% 29.71 in 10.0 mi West 4.6 mph - N/A   Clear
4:35 AM 26.6 °F 21.2 °F 21.2 °F 80% 29.71 in 10.0 mi West 4.6 mph - N/A   Clear
4:55 AM 28.4 °F 23.3 °F 21.2 °F 74% 29.70 in 10.0 mi WSW 4.6 mph - N/A   Clear
5:15 AM 28.4 °F 22.2 °F 21.2 °F 74% 29.70 in 10.0 mi WSW 5.8 mph - N/A   Clear
5:35 AM 28.4 °F 20.4 °F 21.2 °F 74% 29.70 in 10.0 mi SW 8.1 mph - N/A   Clear
5:55 AM 28.4 °F 19.7 °F 21.2 °F 74% 29.70 in 10.0 mi WSW 9.2 mph - N/A   Clear
6:15 AM 28.4 °F 21.2 °F 21.2 °F 74% 29.68 in 10.0 mi WNW 6.9 mph - N/A   Clear
6:35 AM 24.8 °F 16.1 °F 19.4 °F 80% 29.70 in 10.0 mi West 8.1 mph - N/A   Clear
6:55 AM 24.8 °F 15.3 °F 19.4 °F 80% 29.71 in 10.0 mi West 9.2 mph - N/A   Clear
7:15 AM 26.6 °F 18.2 °F 19.4 °F 74% 29.72 in 10.0 mi NW 8.1 mph - N/A   Clear
7:35 AM 26.6 °F 18.2 °F 21.2 °F 80% 29.72 in 10.0 mi NNW 8.1 mph - N/A   Clear
7:55 AM 28.4 °F 19.7 °F 23.0 °F 80% 29.74 in 10.0 mi NNW 9.2 mph - N/A   Clear
8:15 AM 32.0 °F 23.6 °F 26.6 °F 80% 29.74 in 10.0 mi NNW 10.4 mph - N/A   Clear
8:55 AM 37.4 °F 26.9 °F 28.4 °F 70% 29.75 in 10.0 mi North 20.7 mph 25.3 mph N/A   Clear
9:15 AM 39.2 °F 29.3 °F 28.4 °F 65% 29.77 in 10.0 mi North 20.7 mph 27.6 mph N/A   Clear
9:35 AM 41.0 °F 31.1 °F 28.4 °F 61% 29.80 in 10.0 mi North 23.0 mph 29.9 mph N/A   Clear
9:55 AM 42.8 °F 32.5 °F 26.6 °F 53% 29.80 in 10.0 mi North 28.8 mph 33.4 mph N/A   Clear
10:15 AM 42.8 °F 32.1 °F 28.4 °F 57% 29.82 in 10.0 mi NNE 31.1 mph 36.8 mph N/A   Clear
10:35 AM 42.8 °F 32.5 °F 28.4 °F 57% 29.84 in 10.0 mi NNE 28.8 mph 41.4 mph N/A   Clear
10:55 AM 41.0 °F 29.7 °F 30.2 °F 65% 29.85 in 10.0 mi NNE 31.1 mph 41.4 mph N/A   Clear
11:15 AM 41.0 °F 29.3 °F 30.2 °F 65% 29.86 in 10.0 mi North 33.4 mph 39.1 mph N/A   Clear
11:35 AM 41.0 °F 29.1 °F 30.2 °F 65% 29.87 in 10.0 mi NNE 34.5 mph 42.6 mph N/A   Scattered Clouds
11:55 AM 41.0 °F 29.1 °F 30.2 °F 65% 29.88 in 10.0 mi North 34.5 mph 43.7 mph N/A   Mostly Cloudy
12:15 PM 42.8 °F 31.8 °F 32.0 °F 66% 29.87 in 10.0 mi North 33.4 mph 43.7 mph N/A   Overcast
12:35 PM 42.8 °F 31.6 °F 32.0 °F 66% 29.87 in 10.0 mi North 34.5 mph 46.0 mph N/A   Overcast
12:55 PM 42.8 °F 31.1 °F 30.2 °F 61% 29.87 in 10.0 mi North 38.0 mph 46.0 mph N/A   Overcast
1:15 PM 42.8 °F 31.0 °F 30.2 °F 61% 29.87 in 10.0 mi North 39.1 mph 43.7 mph N/A   Mostly Cloudy
1:35 PM 42.8 °F 31.4 °F 30.2 °F 61% 29.86 in 10.0 mi North 35.7 mph 41.4 mph N/A   Overcast
1:55 PM 42.8 °F 31.6 °F 30.2 °F 61% 29.87 in 10.0 mi North 34.5 mph 40.3 mph N/A   Overcast
2:15 PM 41.0 °F 29.5 °F 28.4 °F 61% 29.87 in 10.0 mi North 32.2 mph 43.7 mph N/A   Overcast
2:35 PM 42.8 °F 31.8 °F 28.4 °F 57% 29.88 in 10.0 mi North 33.4 mph 43.7 mph N/A   Mostly Cloudy
3:15 PM 41.0 °F 29.3 °F 26.6 °F 57% 29.91 in 10.0 mi North 33.4 mph 42.6 mph N/A   Overcast
3:35 PM 39.2 °F 26.3 °F 26.6 °F 61% 29.92 in 10.0 mi North 36.8 mph 43.7 mph N/A   Overcast
3:55 PM 37.4 °F 24.4 °F 24.8 °F 60% 29.93 in 10.0 mi North 33.4 mph 39.1 mph N/A   Overcast
4:15 PM 37.4 °F 24.0 °F 23.0 °F 56% 29.95 in 10.0 mi NNE 35.7 mph 42.6 mph N/A   Mostly Cloudy
4:35 PM 35.6 °F 22.1 °F 24.8 °F 65% 29.97 in 10.0 mi North 32.2 mph 42.6 mph N/A   Overcast
4:55 PM 35.6 °F 22.7 °F 23.0 °F 60% 30.00 in 10.0 mi North 28.8 mph 36.8 mph N/A   Overcast
5:15 PM 33.8 °F 21.0 °F 23.0 °F 65% 30.00 in 10.0 mi NNE 25.3 mph 34.5 mph N/A   Scattered Clouds
5:35 PM 32.0 °F 18.4 °F 23.0 °F 69% 30.02 in 10.0 mi NNE 26.5 mph 38.0 mph N/A   Mostly Cloudy
5:55 PM 32.0 °F 18.9 °F 21.2 °F 64% 30.02 in 10.0 mi NNE 24.2 mph 36.8 mph N/A   Scattered Clouds
6:15 PM 32.0 °F 20.5 °F 23.0 °F 69% 30.03 in 10.0 mi NNE 18.4 mph 26.5 mph N/A   Mostly Cloudy
6:35 PM 32.0 °F 19.8 °F 23.0 °F 69% 30.03 in 10.0 mi NNE 20.7 mph 32.2 mph N/A   Mostly Cloudy
6:55 PM 32.0 °F 19.8 °F 23.0 °F 69% 30.04 in 10.0 mi NNE 20.7 mph 31.1 mph N/A   Mostly Cloudy
7:15 PM 32.0 °F 20.1 °F 23.0 °F 69% 30.05 in 10.0 mi NNE 19.6 mph - N/A   Mostly Cloudy
7:35 PM 30.2 °F 17.1 °F 21.2 °F 69% 30.06 in 10.0 mi NNE 21.9 mph 27.6 mph N/A   Scattered Clouds
7:55 PM 32.0 °F 20.1 °F 21.2 °F 64% 30.08 in 10.0 mi North 19.6 mph 31.1 mph N/A   Mostly Cloudy
8:15 PM 30.2 °F 18.9 °F 21.2 °F 69% 30.09 in 10.0 mi NNE 16.1 mph 25.3 mph N/A   Scattered Clouds
8:35 PM 30.2 °F 20.2 °F 21.2 °F 69% 30.09 in 10.0 mi NNE 12.7 mph 18.4 mph N/A   Scattered Clouds
8:55 PM 30.2 °F 19.3 °F 21.2 °F 69% 30.10 in 10.0 mi NNE 15.0 mph 20.7 mph N/A   Clear
9:15 PM 30.2 °F 17.8 °F 21.2 °F 69% 30.12 in 10.0 mi NNE 19.6 mph 28.8 mph N/A   Scattered Clouds
9:35 PM 30.2 °F 19.3 °F 21.2 °F 69% 30.12 in 10.0 mi NNE 15.0 mph 23.0 mph N/A   Mostly Cloudy
9:55 PM 30.2 °F 17.8 °F 19.4 °F 64% 30.13 in 10.0 mi NNE 19.6 mph 25.3 mph N/A   Overcast
10:15 PM 30.2 °F 16.2 °F 19.4 °F 64% 30.15 in 10.0 mi NNE 25.3 mph 29.9 mph N/A   Overcast
10:35 PM 30.2 °F 17.8 °F 19.4 °F 64% 30.16 in 10.0 mi NNE 19.6 mph 23.0 mph N/A   Overcast
10:55 PM 28.4 °F 14.7 °F 19.4 °F 69% 30.17 in 10.0 mi NNE 21.9 mph 28.8 mph N/A   Overcast
11:15 PM 28.4 °F 15.1 °F 19.4 °F 69% 30.17 in 10.0 mi NNE 20.7 mph - N/A   Overcast
11:35 PM 26.6 °F 13.1 °F 17.6 °F 69% 30.18 in 10.0 mi NNE 19.6 mph 24.2 mph N/A   Scattered Clouds
11:55 PM 26.6 °F 13.8 °F 15.8 °F 64% 30.19 in 10.0 mi NNE 17.3 mph 21.9 mph N/A   Clear